Terminal Aerodrome Forecast
Issued by NWS

Home | Current Version | Previous Version | Graphics & Text | Print | Product List | Glossary On
Versions: 1 2 3 4 5 6 7 8 9 10 11 12 13 14 15 16 17 18 19
000
FTUS43 KMPX 211700
TAFRWF
TAF
KRWF 211724Z 2118/2218 16012G20KT P6SM FEW060 SCT200
     FM220300 17008KT P6SM BKN150
     FM221000 30007KT 5SM BR FEW010 SCT120
     FM221400 33013G19KT P6SM SCT250=

USA.gov is the U.S. government's official web portal to all federal, state and local government web resources and services.